Zurück zum Katalog

COSMOS 2251 DEB

AktivLEO
NORAD 40793·DEBRIS·🇷🇺 Russia

Gestartet Jun 16, 1993 von Plesetsk Cosmodrome

Loading…

Nächste Überflüge (nächste 24 Stunden)

TLE

AktuellSource: Space-Track

Epoche: Sep 14, 2026, 16:40 UTC

1 40793U 93036BVW 26257.69454971  .00000596  00000-0  30546-3 0  9992
2 40793  73.9793  40.5893 0212751 136.5360 225.2772 14.06389347721242

Verfolge COSMOS 2251 DEB in Echtzeit mit AllMySat

Download on the App Store